Flag for Ukraine Weather past 2 weeks in Kryvyi Rih, Ukraine

Now
82 °F

Sunny.


Feels Like: 81 °F
Forecast: 64 / 92 °F
Wind: 8 mph from West

Location: Krivyy Rih / Dnipropetrovs'k

Current Time: Aug 31, 2015 at 8:57:42 PM

Latest Report: Aug 31, 2015 at 8:30 PM


Visibility: 10 mi

Pressure: 30.01 "Hg

Humidity: 35%

Dew point: 52 °F

Location of Kryvyi RihLocation

Historic Weather in Kryvyi Rih — Graph

°F

Kryvyi Rih temperature yesterday

Maximum temperature yesterday: 81 °F (at 2:00 PM)
Minimum temperature yesterday: 59 °F (at 6:00 AM)
Average temperature yesterday: 72 °F

Past Weeks' High & Low Weather Summary

 TemperatureHumidityPressure
High95 °F (Aug 29, 4:00 PM)82% (Aug 19, 4:00 AM)30.24 "Hg (Aug 19, 4:00 AM)
Low50 °F (Aug 22, 5:00 AM)16% (Aug 26, 4:00 PM)29.80 "Hg (Aug 16, 8:00 PM)
Average70 °F47%30.08 "Hg
* Reported Aug 16 8:00 PM — Aug 31 8:00 PM, Kryvyi Rih, Weather by CustomWeather, © 2015

Note: Actual official high and low records may vary slightly from our data, if they occured in-between our weather recording intervals... More about our weather records

Advertising

Kryvyi Rih weather history for previous 24 hours

 ConditionsComfort  
Time TempWeatherWind HumidityBarometerVisibility
8:00 PM
Mon, Aug 31
82 °FPassing clouds.6 mph35%30.01 "HgN/A
7:30 PM88 °FSunny.No wind29%30.01 "Hg10 mi
7:00 PM88 °FSunny.3 mph29%30.01 "Hg10 mi
6:30 PM88 °FSunny.10 mph27%30.01 "Hg10 mi
6:00 PM88 °FSunny.8 mph27%30.01 "Hg10 mi
5:30 PM90 °FPassing clouds.6 mph26%30.01 "HgN/A
5:00 PM90 °FSunny.13 mph26%30.04 "Hg10 mi
4:30 PM90 °FPassing clouds.8 mph24%30.04 "HgN/A
4:00 PM90 °FPassing clouds.8 mph24%30.04 "HgN/A
3:30 PM90 °FPassing clouds.6 mph22%30.07 "HgN/A
3:00 PM90 °FPassing clouds.8 mph22%30.07 "HgN/A
2:30 PM88 °FPassing clouds.3 mph24%30.07 "HgN/A
2:00 PM88 °FPassing clouds.6 mph24%30.09 "HgN/A
1:30 PM84 °FPassing clouds.8 mph25%30.09 "HgN/A
1:00 PM84 °FPassing clouds.6 mph25%30.09 "HgN/A
12:30 PM84 °FPassing clouds.3 mph25%30.09 "HgN/A
12:00 PM84 °FPassing clouds.6 mph25%30.09 "HgN/A
11:30 AM81 °FPassing clouds.8 mph28%30.12 "HgN/A
11:00 AM81 °FSunny.10 mph28%30.12 "Hg10 mi
10:30 AM77 °FPassing clouds.8 mph32%30.12 "HgN/A
10:00 AM77 °FPassing clouds.8 mph32%30.15 "HgN/A
9:30 AM70 °FSunny.8 mph40%30.15 "Hg10 mi
9:00 AM70 °FSunny.8 mph40%30.15 "Hg10 mi
8:30 AM63 °FSunny.6 mph49%30.15 "Hg10 mi
8:00 AM63 °FSunny.3 mph49%30.15 "Hg10 mi
7:30 AM57 °FSunny.No wind63%30.15 "Hg10 mi
7:00 AM57 °FClear.No wind63%30.15 "Hg10 mi
6:30 AM54 °FClear.No wind72%30.15 "Hg10 mi
6:00 AM54 °FClear.No wind72%30.15 "Hg10 mi
5:30 AM55 °FClear.No wind63%30.15 "Hg10 mi
5:00 AM55 °FClear.No wind63%30.15 "Hg10 mi
4:30 AM57 °FClear.No wind59%30.15 "Hg10 mi
4:00 AM57 °FClear.No wind59%30.15 "Hg10 mi
3:30 AM57 °FClear.No wind59%30.15 "Hg10 mi
3:00 AM57 °FClear.No wind59%30.18 "Hg10 mi
2:30 AM59 °FClear.No wind51%30.18 "Hg10 mi
2:00 AM59 °FClear.No wind51%30.18 "Hg10 mi
1:30 AM59 °FClear.No wind51%30.18 "Hg10 mi
1:00 AM59 °FClear.No wind51%30.18 "Hg10 mi
12:30 AM59 °FClear.No wind51%30.18 "Hg10 mi
12:00 AM59 °FClear.No wind51%30.18 "Hg10 mi
11:30 PM
Sun, Aug 30
64 °FClear.No wind43%30.18 "Hg10 mi
10:30 PM66 °FClear.3 mph40%30.18 "Hg10 mi
10:00 PM66 °FClear.3 mph40%30.18 "Hg10 mi
9:30 PM66 °FClear.3 mph43%30.18 "Hg10 mi
9:00 PM66 °FPassing clouds.3 mph43%30.18 "HgN/A
8:30 PM70 °FSunny.6 mph35%30.18 "Hg10 mi
8:00 PM70 °FSunny.6 mph35%30.18 "Hg10 mi
Weather by CustomWeather, © 2015

See weather overviewHow to use our weather pages